User: anonymous   Login
Location: Argonnex
(45.9500°N, 6.1333°E)
Time: 00:28:11
(UTC+00:00)
Language:

Cosmos 1844 Rocket - Orbit

View from above orbital plane
View from above orbital plane
View from above satellite
View from above satellite

Ground track
Ground track

The orbit data is extracted from the following two-line orbital elements,

1 17974U 87041B   24176.59365042  .00000287  00000-0  16524-3 0  9990
2 17974  71.0084 266.3565 0011717  74.7464  21.9582 14.17457079919788
Epoch (UTC): 24 June 2024 14:14:51
Eccentricity: 0.0011717
inclination: 71.0084°
perigee height: 825 km
apogee height: 842 km
right ascension of ascending node: 266.3565°
argument of perigee: 74.7464°
revolutions per day: 14.17457079
mean anomaly at epoch: 21.9582°
orbit number at epoch: 91978

The dashed part of the orbit path shows where the satellite is in the earth's shadow,  

DLR